User: anonymous   Login
Location: Franzen
(48.6167°N, 15.3833°E)
Time: 05:32:54
(UTC+00:00)
Language:

FENGYUN 1C DEB - Orbit

View from above orbital plane
View from above orbital plane
View from above satellite
View from above satellite

Ground track
Ground track

The orbit data is extracted from the following two-line orbital elements,

1 32179U 99025CTZ 21297.08088101 -.00000005  00000-0  22905-4 0  9992
2 32179  99.1195 339.3181 0148396  64.0235 352.0854 14.02287888445476
Epoch (UTC): 24 October 2021 01:56:28
Eccentricity: 0.0148396
inclination: 99.1195°
perigee height: 778 km
apogee height: 993 km
right ascension of ascending node: 339.3181°
argument of perigee: 64.0235°
revolutions per day: 14.02287888
mean anomaly at epoch: 352.0854°
orbit number at epoch: 44547

The dashed part of the orbit path shows where the satellite is in the earth's shadow,  

DLR